BAW781 EGLL-ENGM

Flight info

Callsign BAW781
Flight time N/A
Altitude 35000
Route BPK Q295 MATCH P144 SAMHO DCT LARGA DCT INBOB M604 DANKO DCT PIPEX DCT ULMUG DCT RIPAM
Aircraft A321/M-SDE3FGHIRWY/LB1

Departure

Time 2026-05-04 12:05
Airport London Heathrow Airport (EGLL)

Arrival

Time N/A
Airport Oslo-Gardermoen International Airport (ENGM)
Time Latitude Longitude Altitude Speed Heading
2026-05-04 11:22 51.47341 -0.46188 86 ft 0 kts 235°
2026-05-04 11:44 51.47346 -0.46177 90 ft 4 kts 235°
2026-05-04 11:44 51.47361 -0.46142 89 ft 4 kts 235°
2026-05-04 11:44 51.47372 -0.46113 90 ft 4 kts 256°
2026-05-04 11:45 51.47371 -0.46076 89 ft 4 kts 306°
2026-05-04 11:45 51.47365 -0.46063 90 ft 4 kts 325°
2026-05-04 11:45 51.47387 -0.46087 89 ft 2 kts 325°
2026-05-04 11:45 51.47389 -0.46090 88 ft 0 kts 325°
2026-05-04 11:48 51.47393 -0.46094 91 ft 1 kts 325°
2026-05-04 11:48 51.47404 -0.46106 87 ft 2 kts 325°
2026-05-04 11:49 51.47421 -0.46125 88 ft 4 kts 325°
2026-05-04 11:49 51.47444 -0.46151 87 ft 5 kts 323°
2026-05-04 11:49 51.47473 -0.46185 89 ft 6 kts 323°
2026-05-04 11:49 51.47504 -0.46231 88 ft 6 kts 300°
2026-05-04 11:50 51.47519 -0.46302 89 ft 7 kts 271°
2026-05-04 11:50 51.47516 -0.46386 86 ft 8 kts 266°
2026-05-04 11:50 51.47512 -0.46481 88 ft 9 kts 266°
2026-05-04 11:50 51.47510 -0.46584 90 ft 10 kts 269°
2026-05-04 11:51 51.47513 -0.46698 86 ft 10 kts 270°
2026-05-04 11:51 51.47461 -0.46753 87 ft 10 kts 175°
2026-05-04 11:51 51.47389 -0.46730 88 ft 11 kts 168°
2026-05-04 11:51 51.47311 -0.46719 87 ft 12 kts 183°
2026-05-04 11:52 51.47227 -0.46726 86 ft 12 kts 180°
2026-05-04 11:52 51.47139 -0.46723 86 ft 13 kts 179°
2026-05-04 11:52 51.47046 -0.46715 87 ft 14 kts 166°
2026-05-04 11:52 51.46965 -0.46632 87 ft 14 kts 144°
2026-05-04 11:53 51.46882 -0.46541 88 ft 15 kts 146°
2026-05-04 11:53 51.46793 -0.46447 89 ft 16 kts 146°
2026-05-04 11:53 51.46745 -0.46305 88 ft 16 kts 90°
2026-05-04 11:53 51.46748 -0.46128 88 ft 16 kts 88°
2026-05-04 11:55 51.46751 -0.45548 86 ft 0 kts 89°
2026-05-04 11:55 51.46752 -0.45504 86 ft 7 kts 91°
2026-05-04 11:56 51.46751 -0.45422 86 ft 8 kts 91°
2026-05-04 11:56 51.46750 -0.45325 86 ft 9 kts 90°
2026-05-04 11:56 51.46750 -0.45297 86 ft 0 kts 90°
2026-05-04 11:57 51.46750 -0.45291 86 ft 3 kts 90°
2026-05-04 11:57 51.46751 -0.45243 86 ft 5 kts 90°
2026-05-04 11:57 51.46751 -0.45181 86 ft 6 kts 90°
2026-05-04 11:57 51.46751 -0.45106 86 ft 7 kts 89°
2026-05-04 11:58 51.46751 -0.45018 86 ft 8 kts 90°
2026-05-04 11:58 51.46752 -0.44918 86 ft 10 kts 90°
2026-05-04 11:58 51.46752 -0.44805 86 ft 11 kts 90°
2026-05-04 11:58 51.46753 -0.44681 86 ft 12 kts 90°
2026-05-04 11:59 51.46753 -0.44544 88 ft 13 kts 90°
2026-05-04 11:59 51.46754 -0.44436 86 ft 13 kts 90°
2026-05-04 11:59 51.46754 -0.44282 86 ft 14 kts 89°
2026-05-04 11:59 51.46756 -0.44118 87 ft 15 kts 85°
2026-05-04 12:00 51.46771 -0.43959 89 ft 11 kts 86°
2026-05-04 12:00 51.46772 -0.43946 88 ft 1 kts 86°
2026-05-04 12:00 51.46772 -0.43927 88 ft 2 kts 89°
2026-05-04 12:00 51.46770 -0.43894 96 ft 4 kts 99°
2026-05-04 12:01 51.46758 -0.43855 85 ft 4 kts 131°
2026-05-04 12:01 51.46727 -0.43834 87 ft 5 kts 168°
2026-05-04 12:02 51.46524 -0.43556 88 ft 9 kts 143°
2026-05-04 12:03 51.46500 -0.43495 87 ft 6 kts 95°
2026-05-04 12:03 51.46505 -0.43459 90 ft 1 kts 116°
2026-05-04 12:03 51.46500 -0.43460 91 ft 0 kts 171°
2026-05-04 12:03 51.46497 -0.43465 90 ft 0 kts 208°
2026-05-04 12:04 51.46497 -0.43471 90 ft 1 kts 246°
2026-05-04 12:04 51.46494 -0.43494 87 ft 4 kts 260°
2026-05-04 12:04 51.46491 -0.43551 87 ft 7 kts 267°
2026-05-04 12:04 51.46493 -0.43911 86 ft 74 kts 271°
2026-05-04 12:05 51.46492 -0.45174 88 ft 150 kts 270°
2026-05-04 12:05 51.46489 -0.47176 171 ft 202 kts 268°
2026-05-04 12:05 51.46476 -0.49385 1147 ft 193 kts 270°
2026-05-04 12:05 51.46565 -0.51550 2028 ft 202 kts 285°
2026-05-04 12:06 51.47108 -0.53745 2548 ft 217 kts 297°
2026-05-04 12:06 51.47843 -0.55908 2974 ft 225 kts 301°
2026-05-04 12:06 51.48627 -0.58097 3438 ft 227 kts 300°
2026-05-04 12:06 51.49405 -0.60302 3887 ft 228 kts 299°
2026-05-04 12:07 51.50177 -0.62533 4328 ft 230 kts 300°
2026-05-04 12:07 51.51299 -0.64341 4738 ft 233 kts 332°
2026-05-04 12:07 51.52882 -0.64845 5159 ft 235 kts
2026-05-04 12:07 51.54520 -0.64632 5589 ft 237 kts
2026-05-04 12:08 51.56104 -0.63868 5942 ft 244 kts 26°
2026-05-04 12:08 51.57500 -0.62135 5980 ft 268 kts 51°
2026-05-04 12:08 51.58626 -0.59670 6404 ft 279 kts 54°
2026-05-04 12:08 51.59792 -0.57139 7031 ft 284 kts 53°
2026-05-04 12:09 51.60996 -0.54583 7687 ft 287 kts 53°
2026-05-04 12:09 51.62197 -0.52006 8334 ft 290 kts 57°
2026-05-04 12:09 51.63169 -0.49129 8956 ft 294 kts 64°
2026-05-04 12:09 51.64090 -0.46180 9621 ft 297 kts 64°
2026-05-04 12:10 51.65019 -0.43173 10216 ft 302 kts 64°
2026-05-04 12:10 51.65994 -0.40003 10419 ft 323 kts 64°
2026-05-04 12:10 51.67010 -0.36692 10548 ft 342 kts 64°
2026-05-04 12:10 51.68085 -0.33191 10844 ft 354 kts 64°
2026-05-04 12:11 51.69186 -0.29610 11369 ft 358 kts 64°
2026-05-04 12:11 51.70307 -0.25956 11932 ft 361 kts 64°
2026-05-04 12:11 51.71408 -0.22356 12523 ft 364 kts 64°
2026-05-04 12:11 51.72532 -0.18675 13105 ft 367 kts 64°
2026-05-04 12:12 51.73678 -0.14929 13669 ft 371 kts 64°
2026-05-04 12:12 51.74706 -0.11107 14168 ft 373 kts 73°
2026-05-04 12:12 51.75302 -0.06968 14670 ft 374 kts 83°
2026-05-04 12:12 51.75639 -0.02789 15187 ft 376 kts 84°
2026-05-04 12:13 51.75978 0.01404 15668 ft 378 kts 84°
2026-05-04 12:14 51.81187 0.30069 18987 ft 400 kts 46°
2026-05-04 12:15 51.83185 0.33209 19364 ft 402 kts 44°
2026-05-04 12:15 51.85212 0.36370 19772 ft 405 kts 44°
2026-05-04 12:15 51.86582 0.38517 20031 ft 407 kts 44°
2026-05-04 12:15 51.88615 0.41713 20441 ft 409 kts 45°
2026-05-04 12:16 51.90662 0.44944 20839 ft 412 kts 45°
2026-05-04 12:16 51.93384 0.49242 21350 ft 415 kts 44°
2026-05-04 12:16 51.94786 0.51454 21590 ft 417 kts 44°
2026-05-04 12:16 51.96872 0.54747 21964 ft 420 kts 44°
2026-05-04 12:17 51.98970 0.58058 22338 ft 422 kts 44°
2026-05-04 12:17 52.01082 0.61397 22709 ft 425 kts 44°
2026-05-04 12:17 52.01807 0.62521 22830 ft 426 kts 42°